This demonstration page uses our WeatherBlox Daily Observations layout. Learn more.

Left ArrowRight Arrow

34.16533, -84.80231

Hourly Observations for July 6, 2016

Temp ( °F °C ) Dew Point ( °F °C ) Humidity (%) Winds ( mph kmh ) Pressure ( in mb ) Visibility ( mi km ) Precip ( " mm )
12:53 am 00:53 Clear 73 22.8 72 22.2 96 96 Calm 30.04 1017 8 13 0.00 0.00
1:53 am 01:53 Clear 74 23.3 73 22.8 97 97 Calm 30.03 1017 10 16 0.00 0.00
2:53 am 02:53 Clear 73 22.8 72 22.2 96 96 Calm 30.04 1017 7 11 0.00 0.00
3:53 am 03:53 Mostly Cloudy 73 22.8 72 22.2 96 96 Calm 30.04 1017 9 14 0.00 0.00
4:53 am 04:53 Partly Cloudy 72 22.2 71 21.7 97 97 Calm 30.04 1017 7 11 0.00 0.00
5:53 am 05:53 Clear 71 21.7 70 21.1 96 96 Calm 30.04 1017 8 13 0.00 0.00
6:53 am 06:53 Partly Cloudy with Mist and Fog 71 21.7 70 21.1 96 96 Calm 30.05 1018 6 10 0.00 0.00
7:53 am 07:53 Mostly Sunny 75 23.9 73 22.8 94 94 Calm 30.07 1018 9 14 0.00 0.00
8:53 am 08:53 Mostly Cloudy 77 25 73 22.8 88 88 Calm 30.08 1019 10 16 0.00 0.00
9:53 am 09:53 Partly Cloudy 79 26.1 73 22.8 82 82 VRB 3 6 30.09 1019 10 16 0.00 0.00
10:05 am 10:05 Mostly Cloudy 80 26.7 74 23.3 82 82 VRB 5 7 30.06 1018 10 16 0.00 0.00
10:13 am 10:13 Mostly Cloudy 80 26.7 73 22.8 79 79 VRB 5 7 30.06 1018 10 16 0.00 0.00
10:21 am 10:21 Mostly Cloudy 80 26.7 73 22.8 79 79 VRB 3 6 30.06 1018 10 16 0.00 0.00
10:53 am 10:53 Cloudy 80 26.7 72 22.2 76 76 VRB 3 6 30.08 1019 10 16 0.00 0.00
11:02 am 11:02 Cloudy with Nearby Thunderstorms 80 26.7 73 22.8 79 79 Calm 30.06 1018 10 16 0.00 0.00
11:08 am 11:08 Partly Cloudy with Thunderstorms N/A N/A N/A SSW 5 7 N/A N/A 0.00 0.00
11:17 am 11:17 Partly Cloudy with Thunderstorms 78 25.6 75 23.9 90 90 VRB 3 6 30.06 1018 2 3 0.06 1.52
11:26 am 11:26 Partly Cloudy with Thunderstorms 77 25 74 23.3 90 90 Calm 30.09 1019 3 5 0.07 1.78
11:33 am 11:33 Partly Cloudy with Strong Thunderstorms 76 24.4 74 23.3 94 94 VRB 5 7 30.09 1019 2 3 0.12 3.05
11:42 am 11:42 Cloudy with Strong Thunderstorms 74 23.3 73 22.8 97 97 VRB 5 7 30.12 1020 1 1 0.29 7.37
11:53 am 11:53 Cloudy with Strong Thunderstorms 71 21.7 70 21.1 96 96 N 6 9 30.11 1020 0 0 0.74 18.80
11:58 am 11:58 Cloudy with Strong Thunderstorms 71 21.7 70 21.1 96 96 VRB 3 6 30.12 1020 1 1 0.04 1.02
12:07 pm 12:07 Cloudy with Strong Thunderstorms 72 22.2 71 21.7 97 97 Calm 30.12 1020 2 2 0.09 2.29
12:11 pm 12:11 Cloudy with Thunderstorms 72 22.2 71 21.7 97 97 NE 6 9 30.09 1019 2 3 0.09 2.29
12:19 pm 12:19 Cloudy with Thunderstorms 72 22.2 70 21.1 94 94 NNE 7 11 30.12 1020 9 14 0.10 2.54
12:53 pm 12:53 Partly Cloudy with Nearby Thunderstorms 71 21.7 70 21.1 96 96 SE 3 6 30.10 1019 9 14 0.10 2.54
1:05 pm 13:05 Partly Cloudy with Thunderstorms 72 22.2 71 21.7 97 97 SSE 5 7 30.09 1019 9 14 0.01 0.25
1:20 pm 13:20 Mostly Cloudy 72 22.2 70 21.1 94 94 SSE 3 6 30.09 1019 10 16 0.01 0.25
1:53 pm 13:53 Partly Cloudy 73 22.8 71 21.7 94 94 N 5 7 30.08 1019 10 16 0.01 0.25
2:29 pm 14:29 Mostly Sunny 74 23.3 72 22.2 94 94 Calm 30.06 1018 10 16 0.00 0.00
2:53 pm 14:53 Sunny 77 25 73 22.8 88 88 VRB 3 6 30.04 1017 10 16 0.00 0.00
3:53 pm 15:53 Sunny 78 25.6 73 22.8 85 85 S 6 9 30.01 1016 10 16 0.00 0.00
4:53 pm 16:53 Sunny 82 27.8 74 23.3 77 77 SSW 5 7 30.01 1016 10 16 0.00 0.00
5:31 pm 17:31 Sunny with Nearby Thunderstorms 82 27.8 74 23.3 77 77 S 7 11 30.00 1016 10 16 0.00 0.00
5:53 pm 17:53 Mostly Cloudy with Nearby Thunderstorms 80 26.7 71 21.7 74 74 VRB 7 11 30.04 1017 10 16 0.00 0.00
6:07 pm 18:07 Cloudy with Thunderstorms 76 24.4 66 18.9 72 72 S 7 11 30.06 1018 10 16 0.00 0.03
6:48 pm 18:48 Partly Cloudy with Nearby Thunderstorms 75 24 68 20 78 78 Calm 30.03 1017 10 16 0.00 0.03
6:53 pm 18:53 Partly Cloudy with Nearby Thunderstorms 75 23.9 68 20 79 79 Calm 29.99 1016 10 16 0.00 0.03
7:04 pm 19:04 Sunny 75 23.9 69 20.6 82 82 Calm 30.03 1017 10 16 0.00 0.00
7:53 pm 19:53 Mostly Cloudy 76 24.4 71 21.7 85 85 undefined N/A 30.03 1017 10 16 0.00 0.00
8:53 pm 20:53 Sunny 74 23.3 70 21.1 88 88 Calm 30.01 1016 10 16 0.00 0.00
9:53 pm 21:53 Clear 73 22.8 70 21.1 90 90 Calm 30.02 1017 10 16 0.00 0.00
10:53 pm 22:53 Partly Cloudy 73 22.8 70 21.1 90 90 Calm 30.06 1018 10 16 0.00 0.00
11:53 pm 23:53 Clear 72 22.2 70 21.1 94 94 Calm 30.04 1017 10 16 0.00 0.00

Powered by AerisWeather